KE8DAF-15 Weather Reports


time (UTC)temp
C
wind
direction
speed
KPH
gust
KPH
rain 1hr
cm
rain 24hr
cm
rain mn
cm
humidity
%
barometer
mb
20260901083232 19 317 4.8 11.3 0.00 0.18 0.00 100 997.7
20260901083003 19 305 4.8 6.4 0.00 0.18 0.00 100 997.6
20260901082837 19 305 4.8 6.4 0.00 0.18 0.00 100 997.6
20260901082732 19 305 4.8 6.4 0.00 0.18 0.00 100 997.6
20260901082232 19 336 6.4 11.3 0.00 0.18 0.00 100 997.5
20260901081732 19 336 6.4 11.3 0.00 0.18 0.00 100 997.5
20260901081234 19 325 6.4 11.3 0.00 0.18 0.00 100 997.5
20260901080732 19 333 6.4 11.3 0.00 0.18 0.00 100 997.5
20260901080232 20 304 6.4 11.3 0.00 0.18 0.00 100 997.5
20260901075732 19 322 4.8 12.9 0.00 0.18 0.00 100 997.5
20260901075232 19 302 4.8 11.3 0.00 0.18 0.00 100 997.4
20260901074732 19 298 4.8 6.4 0.00 0.18 0.00 100 997.4
20260901074232 19 273 4.8 9.7 0.00 0.18 0.00 100 997.4
20260901073732 19 309 4.8 8.0 0.00 0.18 0.00 99 997.3
20260901073232 20 298 4.8 6.4 0.00 0.18 0.00 99 997.4
20260901072931 20 304 4.8 6.4 0.00 0.18 0.00 100 997.3
20260901072733 20 304 4.8 6.4 0.00 0.18 0.00 100 997.3
20260901072339 20 267 3.2 9.7 0.00 0.18 0.00 100 997.4
20260901072232 20 267 3.2 9.7 0.00 0.18 0.00 100 997.4
20260901071732 20 292 4.8 6.4 0.00 0.18 0.00 99 997.3
20260901071412 20 284 4.8 8.0 0.00 0.18 0.00 99 997.3
20260901071232 20 284 4.8 8.0 0.00 0.18 0.00 99 997.3
20260901070732 20 279 3.2 6.4 0.00 0.18 0.00 99 997.3
20260901070232 20 288 3.2 6.4 0.00 0.18 0.18 99 997.2
20260901065733 20 311 3.2 6.4 0.00 0.18 0.18 99 997.2
20260901065232 20 298 3.2 4.8 0.00 0.18 0.18 99 997.1
20260901064925 20 301 3.2 4.8 0.00 0.18 0.18 99 997.1
20260901064732 20 301 3.2 4.8 0.00 0.18 0.18 99 997.1
20260901064339 20 298 3.2 6.4 0.00 0.18 0.18 99 997.1
20260901064232 20 298 3.2 6.4 0.00 0.18 0.18 99 997.1
20260901063732 20 306 3.2 6.4 0.00 0.18 0.18 99 997.1
20260901063233 20 292 3.2 4.8 0.00 0.18 0.18 99 997.1
20260901062733 20 289 3.2 6.4 0.00 0.18 0.18 99 997.1
20260901062233 20 295 3.2 6.4 0.00 0.18 0.18 98 997.0
20260901061734 20 296 3.2 4.8 0.00 0.18 0.18 98 997.0
20260901061232 20 293 3.2 4.8 0.00 0.18 0.18 98 997.0
20260901060934 20 304 3.2 6.4 0.00 0.18 0.18 98 996.9
20260901060733 20 304 3.2 6.4 0.00 0.18 0.18 98 996.9
20260901060234 20 294 3.2 6.4 0.00 0.18 0.18 98 996.9
20260901055940 20 296 3.2 6.4 0.00 0.18 0.18 98 997.0
20260901055733 20 296 3.2 6.4 0.00 0.18 0.18 98 997.0
20260901055233 20 311 3.2 8.0 0.00 0.18 0.18 98 997.0
20260901054733 20 293 3.2 3.2 0.00 0.18 0.18 97 997.0
20260901054233 20 294 3.2 4.8 0.00 0.18 0.18 97 997.0
20260901053838 20 307 3.2 4.8 0.00 0.18 0.18 97 997.0
20260901053733 20 307 3.2 4.8 0.00 0.18 0.18 97 997.0
20260901053233 21 288 3.2 4.8 0.00 0.18 0.18 97 997.2
20260901052733 21 302 3.2 6.4 0.00 0.18 0.18 97 997.2
20260901052233 21 298 3.2 6.4 0.00 0.18 0.18 97 997.2
20260901051733 21 300 4.8 9.7 0.00 0.18 0.18 97 997.2
20260901051233 21 276 4.8 6.4 0.00 0.18 0.18 96 997.3
20260901050733 21 302 4.8 8.0 0.00 0.18 0.18 96 997.3
20260901050233 21 300 4.8 8.0 0.00 0.18 0.18 96 997.2
20260901045733 21 290 4.8 11.3 0.00 0.18 0.18 96 997.3
20260901045233 21 291 4.8 11.3 0.00 0.18 0.18 96 997.4
20260901044734 21 281 4.8 8.0 0.00 0.18 0.18 97 997.4
20260901044233 21 298 4.8 14.5 0.00 0.18 0.18 97 997.3
20260901043733 21 305 4.8 11.3 0.00 0.18 0.18 97 997.4
20260901043233 21 300 4.8 8.0 0.00 0.18 0.18 98 997.3
20260901042733 21 296 4.8 8.0 0.00 0.18 0.18 98 997.2
20260901042233 21 305 4.8 8.0 0.00 0.18 0.18 98 997.3
20260901041733 21 306 3.2 14.5 0.00 0.18 0.18 99 997.3
20260901041233 21 294 1.6 6.4 0.00 0.18 0.18 99 997.3
20260901040733 21 313 1.6 3.2 0.00 0.18 0.18 99 997.2
20260901040233 21 313 1.6 3.2 0.00 0.18 0.18 99 997.2
20260901035733 21 313 1.6 3.2 0.00 0.18 0.18 99 997.2
20260901035233 21 313 1.6 3.2 0.00 0.18 0.18 99 997.2
20260901034733 21 313 1.6 3.2 0.00 0.18 0.18 99 997.2
20260901034233 21 313 0.0 3.2 0.00 0.18 0.18 99 997.0
20260901033733 21 313 0.0 3.2 0.00 0.18 0.18 98 997.0
20260901033233 21 313 1.6 1.6 0.00 0.18 0.18 99 997.0
20260901032733 21 313 1.6 3.2 0.00 0.18 0.18 99 997.2
20260901032233 21 313 1.6 3.2 0.00 0.18 0.18 98 997.1
20260901031733 21 313 1.6 3.2 0.00 0.18 0.18 98 997.1
20260901031235 21 313 1.6 3.2 0.00 0.18 0.18 98 997.0
20260901030733 21 319 0.0 3.2 0.00 0.18 0.18 98 996.9
20260901030233 21 9 0.0 1.6 0.00 0.18 0.18 98 997.0
20260901025733 21 10 0.0 1.6 0.00 0.18 0.18 98 997.0
20260901025233 21 10 0.0 1.6 0.00 0.18 0.18 98 997.1
20260901024733 21 9 0.0 1.6 0.00 0.18 0.18 98 997.2
20260901024233 21 10 0.0 1.6 0.00 0.18 0.18 97 997.2
20260901023733 21 10 0.0 1.6 0.00 0.18 0.18 97 997.0
20260901023233 21 164 0.0 1.6 0.00 0.18 0.18 97 997.1
20260901022733 22 182 0.0 1.6 0.00 0.18 0.18 97 997.1
20260901022233 22 171 0.0 0.0 0.00 0.18 0.18 97 997.0
20260901021733 22 171 0.0 0.0 0.00 0.18 0.18 97 997.0
20260901021233 22 171 0.0 0.0 0.00 0.18 0.18 97 997.1
20260901020733 22 171 0.0 0.0 0.00 0.18 0.18 97 997.1
20260901020233 22 171 0.0 1.6 0.00 0.18 0.18 97 996.9
20260901015734 22 171 0.0 1.6 0.00 0.18 0.18 97 997.1
20260901015233 22 171 0.0 1.6 0.00 0.18 0.18 97 997.0
20260901014733 22 171 0.0 1.6 0.00 0.18 0.18 97 997.2
20260901014233 22 171 0.0 0.0 0.00 0.18 0.18 97 997.2
20260901013733 22 171 0.0 1.6 0.00 0.18 0.18 96 997.3
20260901013233 22 130 0.0 0.0 0.00 0.18 0.18 96 997.3
20260901012733 22 131 0.0 1.6 0.00 0.18 0.18 96 997.3
20260901012233 22 131 0.0 0.0 0.00 0.18 0.18 96 997.2
20260901011733 22 131 0.0 0.0 0.00 0.18 0.18 96 997.1
20260901011233 22 130 0.0 1.6 0.00 0.18 0.18 96 997.1
20260901010735 22 130 0.0 3.2 0.00 0.18 0.18 96 997.0
20260901010234 22 153 1.6 1.6 0.00 0.18 0.18 95 997.0
20260901005734 22 153 1.6 3.2 0.00 0.18 0.18 95 996.9
20260901005234 22 157 1.6 4.8 0.00 0.18 0.18 95 996.7
20260901004734 22 161 1.6 4.8 0.00 0.18 0.18 95 996.7
20260901004234 22 130 1.6 1.6 0.00 0.18 0.18 95 996.7
20260901003734 22 165 1.6 4.8 0.00 0.18 0.18 95 996.7
20260901003234 22 148 1.6 3.2 0.00 0.18 0.18 95 996.7
20260901002734 22 149 1.6 4.8 0.00 0.18 0.18 94 996.6
20260901002234 22 161 1.6 1.6 0.00 0.18 0.18 94 996.7
20260901001734 22 157 1.6 3.2 0.00 0.18 0.18 94 996.6
20260901001234 22 146 1.6 3.2 0.00 0.18 0.18 94 996.6
20260901000734 22 166 1.6 3.2 0.00 0.18 0.18 94 996.6
20260901000234 22 156 1.6 3.2 0.00 0.18 0.18 94 996.5
20260831235734 22 159 1.6 4.8 0.00 0.18 0.18 93 996.5
20260831235234 22 159 1.6 3.2 0.00 0.18 0.18 93 996.6
20260831234734 22 161 1.6 3.2 0.00 0.18 0.18 93 996.6
20260831234234 23 157 3.2 8.0 0.00 0.18 0.18 92 996.6
20260831233735 23 150 3.2 8.0 0.00 0.18 0.18 92 996.7
20260831233234 23 158 3.2 8.0 0.00 0.18 0.18 92 996.7
20260831232734 23 185 1.6 6.4 0.00 0.18 0.18 92 996.7
20260831232234 23 155 1.6 6.4 0.00 0.18 0.18 92 996.7
20260831232015 23 158 1.6 4.8 0.00 0.18 0.18 92 996.7
20260831231734 23 158 1.6 4.8 0.00 0.18 0.18 92 996.7
20260831231234 23 165 1.6 3.2 0.00 0.18 0.18 92 996.6
20260831230734 23 169 1.6 1.6 0.00 0.18 0.18 92 996.6
20260831230234 23 165 1.6 4.8 0.00 0.18 0.18 92 996.6
20260831225734 23 145 1.6 4.8 0.00 0.18 0.18 92 996.6
20260831225234 23 150 1.6 6.4 0.00 0.18 0.18 92 996.5
20260831224734 24 173 1.6 3.2 0.00 0.18 0.18 91 996.7
20260831224234 24 107 1.6 3.2 0.00 0.18 0.18 91 996.8
20260831223734 24 86 0.0 4.8 0.00 0.18 0.18 91 996.8
20260831223234 24 157 0.0 4.8 0.00 0.18 0.18 91 996.8
20260831222734 25 144 0.0 6.4 0.00 0.18 0.18 90 996.7
20260831222234 25 129 0.0 1.6 0.00 0.18 0.18 90 996.7
20260831221734 25 153 0.0 0.0 0.00 0.18 0.18 90 996.7
20260831221234 25 153 0.0 0.0 0.00 0.18 0.18 90 996.7
20260831220734 25 153 0.0 3.2 0.00 0.18 0.18 90 996.7
20260831220234 25 145 0.0 3.2 0.00 0.18 0.18 89 996.7
20260831215734 25 167 0.0 0.0 0.00 0.18 0.18 89 996.7
20260831215234 25 160 0.0 1.6 0.00 0.18 0.18 88 997.0
20260831215054 25 146 0.0 3.2 0.00 0.18 0.18 88 996.9
20260831214734 25 146 0.0 3.2 0.00 0.18 0.18 88 996.9
20260831214234 25 167 0.0 1.6 0.00 0.18 0.18 88 996.9
20260831213734 25 161 0.0 4.8 0.00 0.18 0.18 87 996.9
20260831213234 25 147 0.0 3.2 0.00 0.18 0.18 87 996.9
20260831212734 25 167 0.0 4.8 0.00 0.18 0.18 86 997.0
20260831212234 25 169 0.0 0.0 0.00 0.18 0.18 87 997.0
20260831211734 25 158 0.0 3.2 0.00 0.18 0.18 86 997.0
20260831211234 26 165 0.0 4.8 0.00 0.18 0.18 86 996.9
20260831210734 25 153 0.0 3.2 0.00 0.18 0.18 86 996.9
20260831210234 25 161 0.0 0.0 0.00 0.18 0.18 86 997.0
20260831205735 25 95 0.0 1.6 0.00 0.18 0.18 85 997.0
20260831205234 25 161 0.0 0.0 0.00 0.18 0.18 86 997.0
20260831204734 25 161 0.0 0.0 0.00 0.18 0.18 86 997.0
20260831204234 25 172 0.0 1.6 0.00 0.18 0.18 85 997.2
20260831203734 25 141 0.0 1.6 0.00 0.18 0.18 85 997.1
20260831203234 25 167 0.0 0.0 0.00 0.18 0.18 85 997.2
20260831202735 25 167 0.0 1.6 0.00 0.18 0.18 85 997.4
20260831202234 26 167 0.0 1.6 0.00 0.18 0.18 86 997.3
20260831201734 26 150 0.0 3.2 0.00 0.18 0.18 84 997.5
20260831201235 26 161 0.0 0.0 0.00 0.18 0.18 83 997.6
20260831200734 26 159 0.0 0.0 0.00 0.18 0.18 82 997.7
20260831200234 26 167 0.0 0.0 0.00 0.18 0.18 82 997.7
20260831195736 26 167 0.0 0.0 0.00 0.18 0.18 81 997.7
20260831195234 26 148 0.0 0.0 0.00 0.18 0.18 80 997.7
20260831194735 26 155 0.0 3.2 0.00 0.18 0.18 80 997.8
20260831194235 27 124 0.0 0.0 0.00 0.18 0.18 82 997.8
20260831193735 27 166 0.0 1.6 0.00 0.18 0.18 82 997.7
20260831193235 27 165 1.6 3.2 0.00 0.18 0.18 81 997.7
20260831192735 27 153 1.6 6.4 0.00 0.18 0.18 80 997.8
20260831192236 27 178 1.6 6.4 0.00 0.18 0.18 80 997.7
20260831191735 27 187 1.6 6.4 0.00 0.18 0.18 80 997.7
20260831191235 27 159 0.0 3.2 0.00 0.18 0.18 80 997.7
20260831190735 27 172 1.6 3.2 0.00 0.18 0.18 80 997.8
20260831190235 28 171 1.6 8.0 0.00 0.18 0.18 79 997.9
20260831185735 28 180 1.6 4.8 0.00 0.18 0.18 79 998.0
20260831185235 28 152 1.6 3.2 0.00 0.18 0.18 81 998.1
20260831184735 27 51 1.6 6.4 0.00 0.18 0.18 80 998.1
20260831184235 27 140 0.0 3.2 0.00 0.18 0.18 82 998.2
20260831183735 27 71 0.0 3.2 0.00 0.18 0.18 82 998.4
20260831183235 27 136 1.6 3.2 0.00 0.18 0.18 82 998.5
20260831182735 27 167 1.6 3.2 0.00 0.18 0.18 80 998.6
20260831182235 27 55 0.0 3.2 0.00 0.18 0.18 81 998.5
20260831181735 27 179 1.6 4.8 0.00 0.18 0.18 82 998.5
20260831181235 27 140 1.6 3.2 0.00 0.18 0.18 82 998.5
20260831180735 27 136 1.6 3.2 0.00 0.18 0.18 81 998.5
20260831180235 27 270 1.6 4.8 0.00 0.18 0.18 81 998.4
20260831175735 26 174 0.0 4.8 0.00 0.18 0.18 83 998.5
20260831175235 26 259 0.0 3.2 0.00 0.18 0.18 82 998.5
20260831174735 26 171 1.6 4.8 0.00 0.18 0.18 84 998.5
20260831174235 26 165 1.6 3.2 0.00 0.18 0.18 85 998.6
20260831173735 26 204 0.0 4.8 0.00 0.18 0.18 85 998.9
20260831173235 26 197 1.6 3.2 0.00 0.18 0.18 86 999.0
20260831172735 25 317 1.6 6.4 0.00 0.18 0.18 89 999.1
20260831172235 25 5 1.6 6.4 0.00 0.18 0.18 90 999.2
20260831171735 25 29 1.6 4.8 0.00 0.18 0.18 93 999.3
20260831171235 25 345 1.6 4.8 0.00 0.18 0.18 95 999.4
20260831170735 24 88 1.6 4.8 0.00 0.18 0.18 97 999.4
20260831170235 23 311 3.2 4.8 0.00 0.18 0.18 100 999.4
20260831165735 23 284 1.6 6.4 0.00 0.18 0.18 100 999.5
20260831165235 23 16 0.0 3.2 0.00 0.18 0.18 100 999.4
20260831164735 23 100 1.6 3.2 0.00 0.18 0.18 100 999.4
20260831164235 23 95 1.6 6.4 0.00 0.18 0.18 100 999.6
20260831163735 22 229 1.6 4.8 0.00 0.18 0.18 100 999.6
20260831163235 22 331 1.6 4.8 0.00 0.18 0.18 100 999.7
20260831162735 22 175 0.0 3.2 0.00 0.18 0.18 100 999.6
20260831162235 21 111 0.0 1.6 0.00 0.18 0.18 100 999.7
20260831161736 21 324 0.0 3.2 0.00 0.18 0.18 100 999.8
20260831161235 21 120 0.0 0.0 0.00 0.18 0.18 100 1000.0
20260831160736 21 120 0.0 3.2 0.00 0.18 0.18 100 1000.1
20260831160237 21 130 0.0 1.6 0.00 0.18 0.18 100 1000.1
20260831155735 21 277 0.0 3.2 0.00 0.18 0.18 100 1000.0
20260831155235 21 53 0.0 0.0 0.00 0.18 0.18 100 999.9
20260831154735 21 265 0.0 0.0 0.00 0.18 0.18 100 1000.2
20260831154235 20 16 0.0 0.0 0.03 0.18 0.18 100 1000.3
20260831153735 20 327 0.0 0.0 0.03 0.18 0.18 100 1000.3
20260831153235 20 152 0.0 0.0 0.03 0.18 0.18 100 1000.3
20260831152735 20 152 0.0 0.0 0.03 0.18 0.18 100 1000.4
20260831152235 20 153 0.0 0.0 0.03 0.18 0.18 100 1000.4
20260831151735 20 152 0.0 1.6 0.03 0.20 0.18 100 1000.3
20260831151235 20 26 0.0 0.0 0.03 0.20 0.18 100 1000.5
20260831150735 20 129 0.0 0.0 0.03 0.20 0.18 100 1000.3
20260831150236 19 129 0.0 0.0 0.03 0.20 0.18 100 1000.2
20260831145735 19 36 0.0 0.0 0.05 0.20 0.18 100 1000.6
20260831145235 19 36 0.0 1.6 0.05 0.20 0.18 100 1000.6
20260831144736 19 100 0.0 0.0 0.05 0.20 0.18 100 1000.4
20260831144235 19 177 0.0 0.0 0.03 0.18 0.15 100 1000.5
20260831143736 19 177 0.0 1.6 0.03 0.18 0.15 100 1000.5
20260831143235 19 177 0.0 3.2 0.03 0.18 0.15 100 1000.4
20260831142736 19 159 0.0 0.0 0.05 0.18 0.15 100 1000.6
20260831142236 18 159 0.0 0.0 0.05 0.18 0.15 100 1000.5
20260831141736 18 151 0.0 0.0 0.05 0.18 0.15 100 1000.5
20260831141236 18 103 0.0 0.0 0.05 0.18 0.15 100 1000.6
20260831140736 18 103 0.0 0.0 0.05 0.18 0.15 100 1000.8
20260831140236 18 103 0.0 0.0 0.05 0.18 0.15 100 1000.8
20260831135736 18 103 0.0 1.6 0.03 0.15 0.13 100 1000.8
20260831135236 18 103 0.0 1.6 0.03 0.15 0.13 100 1001.0
20260831134736 18 159 0.0 0.0 0.03 0.15 0.13 100 1001.0
20260831134236 18 159 0.0 0.0 0.03 0.15 0.13 100 1001.1
20260831133736 18 159 0.0 1.6 0.03 0.15 0.13 100 1001.0
20260831133236 18 165 0.0 0.0 0.03 0.15 0.13 100 1000.8
20260831132736 18 165 0.0 0.0 0.00 0.13 0.10 100 1000.6
20260831132236 18 165 0.0 0.0 0.00 0.13 0.10 100 1000.5
20260831131736 18 165 0.0 1.6 0.00 0.13 0.10 100 1000.4
20260831131236 18 161 0.0 1.6 0.00 0.13 0.10 100 1000.3
20260831130736 18 165 1.6 1.6 0.00 0.13 0.10 100 1000.2
20260831130236 18 148 0.0 3.2 0.00 0.13 0.10 100 1000.2
20260831125736 18 155 0.0 1.6 0.00 0.13 0.10 100 1000.2
20260831125236 18 109 1.6 3.2 0.00 0.13 0.10 100 1000.2
20260831124736 18 152 1.6 4.8 0.00 0.13 0.10 100 1000.1
20260831124236 18 141 0.0 3.2 0.00 0.13 0.10 100 1000.1
20260831123736 18 165 1.6 1.6 0.00 0.13 0.10 100 1000.1
20260831123236 18 171 1.6 3.2 0.00 0.13 0.10 100 1000.0
20260831122736 18 145 1.6 4.8 0.03 0.13 0.10 100 999.9
20260831122236 18 139 1.6 6.4 0.03 0.13 0.10 100 999.8
20260831121736 18 151 3.2 6.4 0.03 0.13 0.10 100 999.9
20260831121236 18 169 3.2 9.7 0.05 0.13 0.10 100 999.5
20260831120736 18 159 3.2 9.7 0.08 0.13 0.10 100 999.2
20260831120236 18 153 3.2 8.0 0.10 0.13 0.10 100 999.3
20260831115736 18 175 3.2 8.0 0.10 0.13 0.10 100 999.3
20260831115236 18 130 3.2 6.4 0.10 0.13 0.10 100 999.3
20260831114736 18 149 1.6 8.0 0.10 0.13 0.10 100 999.6
20260831114236 18 145 1.6 4.8 0.10 0.13 0.10 100 999.7
20260831113736 18 168 1.6 4.8 0.10 0.13 0.10 100 999.7
20260831113236 18 132 1.6 3.2 0.10 0.13 0.10 100 999.7
20260831112736 18 159 1.6 4.8 0.08 0.10 0.08 100 999.6
20260831112236 18 149 1.6 3.2 0.08 0.10 0.08 100 999.8
20260831111736 18 160 1.6 3.2 0.08 0.13 0.08 100 999.7
20260831111236 18 155 0.0 3.2 0.05 0.10 0.05 100 1000.0
20260831110736 18 169 0.0 0.0 0.03 0.08 0.03 100 1000.1
20260831110236 18 169 0.0 0.0 0.00 0.05 0.00 100 1000.3
20260831105736 18 169 0.0 0.0 0.00 0.05 0.00 100 1000.1
20260831105236 18 169 0.0 0.0 0.00 0.05 0.00 100 1000.3
20260831104736 18 169 0.0 0.0 0.00 0.05 0.00 100 1000.3
20260831104236 18 169 0.0 0.0 0.00 0.05 0.00 100 1000.4
20260831103736 18 169 0.0 0.0 0.00 0.05 0.00 100 1000.4
20260831103236 18 169 0.0 0.0 0.00 0.05 0.00 100 1000.6
20260831102736 18 169 0.0 0.0 0.00 0.05 0.00 100 1000.6
20260831102236 18 169 0.0 0.0 0.00 0.05 0.00 100 1000.7
20260831101736 18 165 0.0 0.0 0.00 0.13 0.00 100 1000.7
20260831101236 18 165 0.0 0.0 0.00 0.13 0.00 100 1000.7
20260831100736 18 175 0.0 1.6 0.00 0.13 0.00 100 1000.7
20260831100236 18 156 0.0 0.0 0.00 0.13 0.00 100 1000.7
20260831095736 18 173 0.0 0.0 0.00 0.13 0.00 100 1000.8
20260831095236 18 161 0.0 0.0 0.00 0.13 0.00 100 1000.8
20260831094736 18 161 0.0 0.0 0.00 0.13 0.00 100 1000.8
20260831094236 18 161 0.0 0.0 0.00 0.13 0.00 100 1000.9
20260831093736 18 77 0.0 0.0 0.00 0.13 0.00 100 1000.7
20260831093236 18 164 0.0 1.6 0.00 0.13 0.00 100 1000.8
20260831092737 18 164 0.0 3.2 0.00 0.13 0.00 100 1001.0
20260831092237 18 162 0.0 1.6 0.00 0.13 0.00 100 1001.0
20260831091737 18 175 0.0 3.2 0.00 0.13 0.00 100 1001.0
20260831091237 18 165 0.0 3.2 0.00 0.13 0.00 100 1001.0
20260831090737 18 160 0.0 6.4 0.00 0.13 0.00 100 1001.1
20260831090237 18 164 0.0 0.0 0.00 0.13 0.00 100 1001.1
20260831085737 18 158 0.0 1.6 0.00 0.13 0.00 100 1001.4
20260831085237 18 158 0.0 3.2 0.00 0.13 0.00 100 1001.5
20260831084737 18 157 0.0 0.0 0.00 0.13 0.00 100 1001.2
20260831084237 18 156 0.0 0.0 0.00 0.13 0.00 100 1001.1
20260831083737 18 163 0.0 0.0 0.00 0.13 0.00 100 1001.2
20260831083237 18 163 0.0 0.0 0.00 0.13 0.00 100 1001.1